DW0268 Weather Reports


Display with metric or nautical units.
time (UTC)temp
F
wind
direction
speed
MPH
gust
MPH
rain 1hr
in
rain 24hr
in
rain mn
in
humidity
%
barometer
mb
20260507053048 54 348 2.0 4.0 0.00 0.02 0.00 87 1019.3
20260507051542 55 27 1.0 3.0 0.00 0.02 0.00 85 1019.2
20260507050041 55 31 0.0 1.0 0.00 0.02 0.00 84 1019.3
20260507044536 55 33 0.0 2.0 0.00 0.07 0.02 84 1018.8
20260507043035 55 33 0.0 2.0 0.00 0.07 0.02 85 1019.0
20260507041537 55 28 0.0 3.0 0.00 0.07 0.02 85 1018.9
20260507040035 56 42 0.0 2.0 0.00 0.07 0.02 83 1019.1
20260507034551 56 40 1.0 3.0 0.00 0.20 0.02 82 1019.0
20260507033039 56 28 0.0 2.0 0.00 0.20 0.02 82 1019.0
20260507031534 56 14 0.0 3.0 0.00 0.20 0.02 83 1019.2
20260507030035 56 19 2.0 8.0 0.00 0.20 0.02 86 1018.7
20260507024547 56 9 1.0 4.0 0.00 0.20 0.02 87 1019.0
20260507023030 56 20 1.0 4.0 0.00 0.20 0.02 87 1018.7
20260507021530 56 70 0.0 3.0 0.00 0.20 0.02 87 1018.4
20260507020029 56 73 0.0 0.0 0.00 0.20 0.02 86 1017.8
20260507014537 56 71 0.0 0.0 0.00 0.26 0.02 84 1017.9
20260507013027 57 72 0.0 3.0 0.00 0.26 0.02 83 1018.5
20260507011538 57 75 0.0 0.0 0.00 0.26 0.02 80 1018.9
20260507010027 57 74 2.0 4.0 0.00 0.26 0.02 80 1018.1
20260507004526 58 67 0.0 0.0 0.00 0.31 0.02 80 1018.3
20260507003026 58 67 0.0 0.0 0.00 0.31 0.02 78 1018.4
20260507001527 58 67 0.0 1.0 0.00 0.31 0.02 76 1018.3
20260507000024 58 67 1.0 4.0 0.00 0.31 0.02 76 1018.1
20260506234524 58 74 3.0 6.0 0.00 0.37 0.02 76 1017.5
20260506233023 58 68 1.0 8.0 0.00 0.37 0.02 75 1017.5
20260506231523 58 46 1.0 5.0 0.00 0.37 0.02 75 1017.2
20260506230019 58 34 0.0 8.0 0.00 0.37 0.02 76 1017.1
20260506224520 58 21 2.0 5.0 0.00 0.47 0.02 75 1016.5
20260506223017 58 45 2.0 6.0 0.00 0.47 0.02 75 1016.3
20260506221516 58 44 2.0 6.0 0.00 0.47 0.02 75 1016.5
20260506220016 58 5 2.0 9.0 0.00 0.47 0.02 73 1017.2
20260506214518 58 28 3.0 10.0 0.00 0.56 0.02 74 1017.7
20260506213012 57 22 2.0 9.0 0.00 0.56 0.02 74 1017.7
20260506211512 57 349 3.0 11.0 0.00 0.56 0.02 76 1017.8
20260506210014 57 75 3.0 9.0 0.00 0.56 0.02 75 1018.1
20260506204509 57 50 2.0 8.0 0.00 0.63 0.02 76 1018.1
20260506203012 57 16 4.0 11.0 0.00 0.63 0.02 74 1018.6
20260506201511 57 28 2.0 8.0 0.00 0.63 0.02 74 1018.5
20260506200011 57 19 2.0 8.0 0.00 0.63 0.02 75 1018.1
20260506194607 57 53 1.0 9.0 0.00 0.65 0.02 75 1018.5
20260506193005 57 22 2.0 5.0 0.00 0.65 0.02 75 1018.2
20260506191506 57 17 5.0 12.0 0.00 0.65 0.02 74 1018.5
20260506190007 57 13 5.0 14.0 0.00 0.65 0.02 74 1018.8
20260506184515 57 39 3.0 10.0 0.00 0.68 0.02 73 1018.5
20260506183107 57 49 3.0 12.0 0.00 0.68 0.02 75 1018.1
20260506181558 56 38 3.0 14.0 0.00 0.68 0.02 75 1017.9
20260506180056 56 360 10.0 16.0 0.00 0.68 0.02 76 1018.1
20260506174601 56 26 4.0 11.0 0.00 0.68 0.02 75 1017.9
20260506173125 55 5 6.0 15.0 0.00 0.68 0.02 77 1018.3
20260506171553 54 5 8.0 17.0 0.00 0.68 0.02 77 1018.9
20260506170052 55 33 8.0 19.0 0.00 0.68 0.02 78 1018.7
20260506164551 55 30 4.0 10.0 0.00 0.68 0.02 77 1018.9
20260506163053 55 41 4.0 13.0 0.00 0.68 0.02 79 1018.1
20260506161548 55 45 6.0 15.0 0.00 0.68 0.02 79 1017.7
20260506160047 54 32 4.0 13.0 0.00 0.68 0.02 80 1018.0
20260506154544 53 41 3.0 14.0 0.00 0.68 0.02 79 1018.5
20260506153044 54 347 7.0 15.0 0.00 0.68 0.02 82 1018.1
20260506151539 53 38 8.0 15.0 0.00 0.68 0.02 83 1017.9
20260506150045 52 355 9.0 13.0 0.00 0.68 0.02 85 1018.4
20260506144553 52 34 11.0 18.0 0.00 0.68 0.02 85 1018.3
20260506143036 51 344 11.0 18.0 0.00 0.68 0.02 86 1017.8
20260506141528 51 53 8.0 13.0 0.00 0.68 0.02 87 1017.9
20260506140040 50 355 5.0 13.0 0.00 0.68 0.02 88 1017.7
20260506134530 50 348 5.0 15.0 0.00 0.72 0.02 89 1017.7
20260506133020 50 18 2.0 13.0 0.00 0.72 0.02 89 1017.1
20260506131527 50 44 3.0 15.0 0.00 0.72 0.02 90 1016.9
20260506130018 49 49 2.0 12.0 0.00 0.72 0.02 90 1017.0
20260506124515 49 65 5.0 11.0 0.00 0.90 0.02 90 1016.5
20260506123019 48 59 3.0 10.0 0.00 0.90 0.02 91 1016.1
20260506121513 48 5 3.0 11.0 0.00 0.90 0.02 91 1016.3
20260506120020 48 19 4.0 13.0 0.00 0.90 0.02 91 1015.9
20260506114517 48 34 2.0 6.0 0.00 0.90 0.02 92 1015.7
20260506113007 48 39 3.0 7.0 0.00 0.90 0.02 92 1015.6
20260506111506 48 49 2.0 9.0 0.00 0.90 0.02 92 1015.4
20260506110004 48 49 3.0 9.0 0.00 0.90 0.02 92 1014.9
20260506104504 48 36 4.0 12.0 0.00 0.90 0.02 92 1015.2
20260506103003 48 41 6.0 16.0 0.00 0.90 0.02 92 1015.1
20260506101602 48 23 6.0 14.0 0.00 0.90 0.02 92 1014.6
20260506100108 48 40 5.0 15.0 0.00 0.90 0.02 92 1014.8
20260506094604 48 13 6.0 15.0 0.00 0.90 0.02 92 1014.5
20260506093055 48 31 11.0 17.0 0.00 0.90 0.02 92 1014.6
20260506091553 48 40 4.0 14.0 0.00 0.90 0.02 93 1014.7
20260506090051 48 47 5.0 16.0 0.00 0.90 0.02 93 1014.7
20260506084552 48 19 6.0 15.0 0.00 0.90 0.02 93 1013.8
20260506083053 49 341 10.0 21.0 0.00 0.90 0.02 93 1013.7
20260506081600 49 351 10.0 19.0 0.00 0.90 0.02 94 1013.5
20260506073038 49 330 6.0 13.0 0.00 0.90 0.02 95 1013.1
20260506071539 49 45 4.0 9.0 0.00 0.90 0.02 95 1013.1
20260506061531 49 338 11.0 19.0 0.01 0.90 0.02 96 1013.7